Location: Caser�o Gudillos
(40.7144°N, 4.1626°W)
Time: 19:07:48
(UTC+00:00)

Daily predictions for brighter satellites

Satellite Brightness Start Highest point End
(mag) Time Altitude Azimuth Time Altitude Azimuth Time Altitude Azimuth
DMSP B5D2-2 4.4 19:47:56 10° N 19:53:14 77° WNW 19:58:30 10° SSW
CSL-04 Rocket 4.0 19:48:01 10° S 19:53:16 68° WSW 19:58:36 10° NNW
CZ-4 R/B 4.0 19:51:01 10° SSW 19:54:14 22° W 19:57:26 10° NW
Cosmos 1844 4.4 19:49:40 10° SSE 19:54:44 33° ESE 19:59:47 10° NE
Resurs 1-3 4.5 19:51:42 10° SE 19:55:37 33° ENE 19:59:32 10° N
Cosmos 968 Rocket 3.8 19:50:39 10° S 19:55:37 45° ESE 20:00:35 10° NNE
ERS-2 2.2 19:52:49 10° N 19:56:28 80° WNW 20:00:04 10° SSW
BREEZE-M DEB (TANK) 4.3 19:52:52 10° WNW 19:57:10 53° N 20:03:34 10° E
Cosmos 1743 Rocket 4.0 19:54:00 10° N 19:58:08 41° ENE 20:02:15 10° SSE
ATLAS 5 CENTAUR R/B 3.9 19:55:36 10° N 19:59:50 22° NE 20:04:34 10° E
BREEZE M DEB (TANK) 4.1 19:59:01 10° W 20:02:10 56° NNW 20:10:54 10° ENE
Cosmos 1486 Rocket 4.4 19:58:12 10° S 20:03:10 42° ESE 20:08:10 10° NNE
MetOp-A 4.3 20:00:46 10° S 20:06:07 78° WSW 20:11:30 10° NNW
Intercosmos 25 Rocket 4.5 20:01:22 10° N 20:07:19 41° ENE 20:11:06 11° SE
Cosmos 2221 2.8 20:04:46 10° SSW 20:09:01 71° W 20:13:21 10° N
S3M 4.5 20:03:55 10° SSE 20:09:48 41° E 20:15:41 10° NNE
Cosmos 1500 Rocket 3.6 20:05:48 10° N 20:10:10 59° E 20:14:26 10° SSE
BREEZE-M R/B 1.8 20:07:22 10° WSW 20:10:31 89° SE 20:12:56 10° ENE
USA 186 2.3 20:09:17 10° S 20:11:51 43° W 20:14:15 10° NNW
Cosmos 1862 3.7 20:12:56 10° NNW 20:16:55 66° W 20:20:54 10° S
FALCON 9 DEB 2.9 20:14:56 10° NW 20:17:57 66° NE 20:20:03 18° ESE
Cosmos 1933 4.3 20:17:11 12° SSE 20:20:21 29° E 20:23:50 10° NNE
FALCON 9 DEB 2.7 20:21:10 10° NW 20:24:12 84° NE 20:26:04 21° SE
Cosmos 1242 Rocket 3.6 20:24:03 17° SE 20:25:51 25° E 20:28:51 10° NE
OBJECT-B 1.7 20:23:14 10° S 20:26:23 49° W 20:29:33 10° NNW
Cosmos 2208 Rocket 4.5 20:22:06 10° NNW 20:27:29 65° WSW 20:32:52 10° S
Cosmos 1553 Rocket 3.9 20:22:14 10° S 20:28:20 85° E 20:34:34 10° N
Cosmos 1437 Rocket 2.6 20:25:52 10° S 20:29:41 74° E 20:33:36 10° NNE
BREEZE M DEB (TANK) 4.5 20:24:06 10° WNW 20:30:16 27° NNW 20:32:57 10° NE
Resurs 01 Rocket 2.0 20:29:42 17° SE 20:32:54 48° ENE 20:37:10 10° N
FALCON 9 DEB 2.8 20:30:01 10° NW 20:33:03 76° NE 20:34:36 26° ESE
DELTA 2 R/B (1) 3.5 20:32:06 10° W 20:37:40 76° S 20:41:51 18° ESE
Sich 1 3.3 20:36:13 10° N 20:40:27 50° E 20:43:00 22° SSE
Cosmos 1417 Rocket 4.5 20:36:07 10° S 20:42:21 88° W 20:48:34 10° N
Meteor 1-20 Rocket 4.4 20:38:02 10° N 20:43:33 54° ENE 20:47:10 21° SSE
BREEZE-M DEB (TANK) 2.8 20:42:04 10° WNW 20:44:13 38° SW 20:45:33 24° SSE
Cosmos 1782 3.8 20:43:16 25° ESE 20:44:25 29° E 20:47:53 10° NNE
CZ-4C R/B 4.2 20:39:07 10° NNW 20:45:08 28° NE 20:51:18 12° E
ERS-1 Rocket 4.5 20:50:52 17° E 20:52:43 21° ENE 20:56:26 10° NNE
Cosmos 1503 Rocket 3.9 20:48:48 10° S 20:53:55 69° ESE 20:59:05 10° NNE
SPOT 5 4.5 20:52:52 18° E 20:54:43 22° ENE 20:58:38 10° NNE
Intercosmos 24 3.7 20:52:31 10° S 20:56:37 82° W 21:00:11 10° N
Cosmos 1151 Rocket 3.3 20:58:03 30° SSE 20:59:45 47° E 21:03:57 10° NNE
USA 290 2.3 20:59:17 10° NNW 21:02:29 56° ENE 21:02:57 49° ESE
Terra 3.5 21:02:22 16° E 21:03:33 18° ENE 21:06:41 10° NNE
Cosmos 1602 4.0 21:01:43 10° N 21:05:29 50° E 21:06:20 41° ESE
Cosmos 2278 Rocket 3.1 21:05:44 26° ESE 21:06:06 26° ESE 21:10:44 10° NE
FALCON 9 DEB 3.6 21:04:36 10° WNW 21:07:29 40° SW 21:07:47 38° SSW
Ariane Rocket 4.1 21:02:47 10° S 21:07:31 41° W 21:12:18 10° NNW
Meteor 1-25 Rocket 4.3 21:07:34 10° N 21:13:26 88° W 21:17:00 25° S
CZ-2C R/B 3.6 21:09:55 10° NNE 21:14:25 90° SE 21:17:35 20° SSW
Cosmos 1515 Rocket 4.4 21:17:35 32° E 21:17:35 32° E 21:21:28 10° NNE
Cosmos 1844 Rocket 4.0 21:13:03 10° SW 21:18:16 41° WNW 21:23:32 10° N
Cosmos 2084 3.3 21:17:53 46° SSE 21:18:40 55° ESE 21:22:47 10° NE
SPOT 1/Viking Rocket 3.5 21:16:47 34° SSE 21:19:05 76° ENE 21:24:17 10° N
X-37B 1.7 21:16:24 10° WNW 21:19:28 41° N 21:20:10 35° NE
SL-4 R/B 2.7 21:15:30 10° WNW 21:19:51 51° SW 21:21:08 38° S
MetOp-B 4.1 21:18:14 29° S 21:21:05 83° WSW 21:26:28 10° NNW
ARIANE 5 R/B 2.8 21:20:40 44° ESE 21:21:31 51° ENE 21:25:44 10° N
Cosmos 1437 4.2 21:25:47 25° NNE 21:25:47 25° NNE 21:27:12 10° NNE
Cosmos 1354 Rocket 4.2 21:20:01 10° SSW 21:25:14 73° WNW 21:30:29 10° NNE
JB-3 4.3 21:24:10 10° NNE 21:27:56 57° E 21:27:56 57° E
Cosmos 1633 Rocket 2.9 21:25:56 10° N 21:30:21 87° ENE 21:31:23 53° S
Cosmos 1812 3.4 21:31:31 40° ENE 21:31:31 40° ENE 21:34:36 10° NNE
SPOT 3 Rocket 4.3 21:29:39 22° SSW 21:32:43 48° W 21:37:43 10° NNW
Landsat 7 4.4 21:31:29 27° SSW 21:33:48 51° W 21:38:27 10° NNW
Cosmos 1328 Rocket 3.6 21:36:49 43° SSW 21:38:13 80° W 21:42:40 10° N
Cosmos 1470 Rocket 3.6 21:35:10 10° N 21:39:37 62° E 21:39:56 59° ESE
Meteor 1-5 Rocket 4.3 21:35:53 10° N 21:41:08 51° ENE 21:42:00 46° ESE
Cosmos 1709 Rocket 4.1 21:35:20 10° NNW 21:41:26 71° W 21:44:27 31° S
CARTOSAT-1 3.4 21:44:08 72° SSE 21:44:34 86° ENE 21:48:54 10° NNW
ATLAS 5 CENTAUR R/B 2.4 21:39:15 10° NW 21:45:04 85° WSW 21:47:13 45° SSE
Cosmos 2074 Rocket 4.3 21:41:57 10° N 21:48:03 49° ENE 21:49:23 43° ESE
NOSS 3-3 (A) 4.0 21:43:49 10° SW 21:49:27 72° NW 21:55:54 10° NNE
NOSS 3-3 (C) 4.0 21:43:55 10° SW 21:49:34 73° NW 21:56:00 10° NNE
Cosmos 1666 3.8 21:49:36 10° N 21:52:11 34° NE 21:52:11 34° NE
Cosmos 1933 Rocket 3.8 21:49:53 10° N 21:53:49 54° ENE 21:53:49 54° ENE
Cosmos 1833 Rocket 3.0 21:49:11 10° NNW 21:54:43 53° ENE 21:55:42 47° E
ATLAS 2AS CENTAUR R/B 4.4 21:50:14 10° NNW 21:56:09 25° NE 22:00:31 14° E
Meteor 1-14 Rocket 4.3 21:51:19 10° NNW 21:57:13 80° W 21:58:49 49° S
BREEZE-M DEB (TANK) 4.4 21:57:21 10° NNW 21:57:58 13° N 21:57:58 13° N
Iridium 4 Rocket 3.6 22:01:47 61° SSE 22:02:49 79° E 22:08:42 10° N
Cosmos 1538 Rocket 4.2 21:58:12 10° NNW 22:03:31 57° ENE 22:03:56 55° E
Resurs 01 Rocket 4.1 22:07:15 11° SW 22:09:37 15° W 22:12:17 10° NW
SJ 16-02 1.8 22:15:14 55° NNE 22:15:14 55° NNE 22:18:46 10° NNE
Spot 2 Rocket 4.3 22:14:23 37° SW 22:15:27 42° W 22:20:14 10° NNW
Cosmos 2228 Rocket 3.8 22:17:34 44° NE 22:17:34 44° NE 22:20:47 10° NNE
Cosmos 773 Rocket 4.3 22:11:23 10° NNW 22:16:34 57° WSW 22:17:09 54° SW
Meteor 1-27 Rocket 3.9 22:18:37 56° E 22:18:37 56° E 22:24:16 10° NNE
USA 306 4.5 22:18:59 10° NNW 22:22:43 28° NNE 22:23:05 28° NE
DELTA 2 R/B (1) 4.5 22:18:39 10° W 22:22:36 35° SW 22:22:36 35° SW
Meteor 2-6 Rocket 4.5 22:23:23 47° SW 22:24:39 59° WNW 22:30:05 10° N
COSMOS 2406 3.0 22:19:47 10° NNW 22:25:29 87° WSW 22:25:47 81° S
Cosmos 2082 Rocket 2.6 22:22:39 10° NNW 22:28:07 50° ENE 22:28:19 50° ENE
Milstar 3 4.1 22:20:34 10° WSW 22:29:42 35° SSW 22:29:42 35° SSW
ERS-1 Rocket 3.6 22:30:51 45° WSW 22:31:09 45° W 22:36:00 10° NNW
SPOT 5 3.6 22:32:05 45° WSW 22:32:24 45° W 22:37:22 10° NNW
Cosmos 1271 Rocket 4.0 22:35:28 41° NNW 22:35:28 41° NNW 22:38:19 10° N
CZ-4C R/B 3.0 22:27:01 10° NW 22:34:31 86° WSW 22:36:28 58° SSE
H-2A R/B 4.3 22:30:40 10° N 22:34:17 48° NW 22:34:17 48° NW
Terra 2.4 22:41:15 49° W 22:41:15 49° W 22:45:32 10° NNW
Meteor 1-11 Rocket 3.7 22:39:04 10° N 22:45:04 83° W 22:45:14 82° SW
Cosmos 1295 Rocket 4.4 22:39:06 10° N 22:45:28 77° E 22:45:45 75° ESE
USA 307 4.3 22:44:12 10° NW 22:47:31 35° N 22:47:31 35° N
Cosmos 2278 Rocket 3.2 22:47:29 28° WSW 22:49:54 43° WNW 22:55:18 10° N
Cosmos 1898 Rocket 4.3 22:57:39 44° NE 22:57:39 44° NE 23:01:25 10° NNE
Cosmos 923 Rocket 4.3 22:51:21 10° NNW 22:55:53 63° NNE 22:55:53 63° NNE
Cosmos 2369 Rocket 4.2 23:03:28 16° ENE 23:03:28 16° ENE 23:05:12 10° NE
USA 308 4.4 22:57:36 10° NW 23:00:30 35° N 23:00:30 35° N
Cosmos 1943 Rocket 3.2 23:11:55 37° ENE 23:11:55 37° ENE 23:15:30 10° NNE
SL-8 Rocket 4.2 23:05:33 10° N 23:11:34 58° ENE 23:11:34 58° ENE
ALOS 2 4.3 23:16:05 28° NNE 23:16:05 28° NNE 23:18:37 10° N
Cosmos 2154 Rocket 4.4 23:11:28 10° NNW 23:17:32 51° W 23:17:50 50° W
Cosmos 44 4.4 23:16:03 10° NNW 23:20:48 42° NE 23:20:48 42° NE
ATLAS 5 CENTAUR R/B 4.5 23:25:55 10° WNW 23:28:44 15° WSW 23:28:44 15° WSW
NOSS 3-4 (A) 3.9 23:27:17 10° NW 23:34:25 68° WSW 23:34:28 68° WSW
NOSS 3-4 (C) 3.9 23:27:24 10° NW 23:34:31 68° WSW 23:34:34 68° WSW
Cosmos 1238 Rocket 4.0 23:31:10 10° N 23:36:39 68° NNW 23:36:39 68° NNW
Cosmos 1833 Rocket 4.5 23:34:03 10° NW 23:37:23 21° W 23:37:23 21° W
SeaSat 1 4.2 23:36:09 10° NE 23:38:19 24° NE 23:38:19 24° NE
USA 215 4.0 23:42:20 33° E 23:44:55 49° NNE 23:51:08 10° NW
Cosmos 2297 4.2 23:45:51 58° NW 23:45:51 58° NW 23:50:55 10° NNE
ATLAS 2AS CENTAUR R/B 2.6 23:40:48 10° NW 23:47:56 86° NW 23:47:56 86° NW
Cosmos 2181 Rocket 4.2 23:52:11 65° NW 23:52:11 65° NW 23:57:53 10° N
SJ 16-02 4.2 23:52:45 10° WNW 23:53:30 10° NW 23:54:16 10° NW
